Tracking 19242 objects as of 15-Aug-2018
HD Live streaming from Space Station
objects crossing your sky now

NOAA 16 DEB

Track NOAA 16 DEB now!
10-day predictions


NORAD ID: 41360
Int'l Code: 2000-055JD
Perigee: 835.8 km
Apogee: 876.8 km
Inclination: 98.9 °
Period: 101.9 minutes
Semi major axis: 7227 km
RCS: Unknown
Launch date: September 21, 2000
Source: United States (US)
Launch site: AIR FORCE WESTERN TEST RANGE (AFWTR)

Note: This is SATELLITE DEBRIS
aabbcc
Your satellite tracking list
Your tracking list is empty




NASA's NSSDC Master Catalog

Two Line Element Set (TLE):
1 41360U 00055JD  18226.99903103  .00000521  00000-0  30240-3 0  9997
2 41360  98.9210 306.7902 0028364 272.3178  87.4746 14.13002222131272
Source of the keplerian elements: AFSPC